Regional Weather Roundup
Issued by NWS

Home | Current Version | Previous Version | Text Only | Print | Product List | Glossary Off
Versions: 1 2 3 4 5 6 7 8 9 10 11 12 13 14 15 16 17 18 19 20 21 22 23 24 25 26 27

000
ASUS45 KBOU 211507
RWRCO

WEATHER ROUNDUP FOR COLORADO
NATIONAL WEATHER SERVICE DENVER/BOULDER CO
800 AM MST SAT JAN 21 2017

NOTE: "FAIR" INDICATES FEW OR NO CLOUDS BELOW 12000 FEET WITH NO
SIGNIFICANT WEATHER AND/OR OBSTRUCTIONS TO VISIBILITY.

COZ001>005-013-030-031-211600-
...NORTHWEST COLORADO...

CITY           SKY/WX    TMP DP  RH WIND       PRES   REMARKS
CRAIG          CLOUDY    18  13  80 SW7       29.34S WCI   9
HAYDEN         MOCLDY    19  12  73 E9        29.34R WCI   9
MEEKER         MOCLDY    18  14  84 CALM      29.32R
MOUNT WERNER   NOT AVBL
STEAMBOAT SPGS CLOUDY    14  12  92 CALM      29.35S
WALDEN           N/A      5   1  85 S5        29.37R WCI  -4
$$

COZ006>008-011-211600-
...WEST CENTRAL VALLEYS...

CITY           SKY/WX    TMP DP  RH WIND       PRES   REMARKS
GRAND JUNCTION LGT SNOW  31  31 100 SE9       29.34R VSB 3/4 WCI  23
MONTROSE       CLOUDY    30  23  75 NE6       29.36R WCI  24
EAGLE          CLOUDY    14  10  85 E6        29.43R WCI   5
RIFLE          CLOUDY    28  25  88 E3        29.35R
DELTA          LGT SNOW  33  32  96 SE3       29.36R
NUCLA          LGT SNOW  32  32 100 NE3       29.36R
$$

COZ017>023-064>068-211600-
...SOUTHWEST COLORADO...

CITY           SKY/WX    TMP DP  RH WIND       PRES   REMARKS
DURANGO        HVY SNOW  29  27  92 E3        29.34F VSB 1/4
CORTEZ         NOT AVBL
PAGOSA SPRINGS LGT SNOW  27  27 100 NE3       29.36F VSB 1
TELLURIDE      NOT AVBL
WOLF CREEK PAS CLOUDY    14  14 100 S14G22    29.38F WCI  -1
$$

COZ009-010-012-014-032>034-037-058>063-211600-
...CENTRAL COLORADO...

CITY           SKY/WX    TMP DP  RH WIND       PRES   REMARKS
ASPEN          FAIR      15  12  88 SE3       29.33R
BUENA VISTA    CLOUDY    11   4  73 NW12      29.39S WCI  -3
COPPER MTN     FAIR      19   7  58 MISG      29.32S
BERTHOUD PASS  NOT AVBL
COTTONWOOD PAS FAIR      18  14  86 CALM      29.36S
GUNNISON       FAIR       7   1  76 E10       29.40S WCI  -8
KREMMLING      SNOW     N/A N/A N/A CALM      29.43S VSB 1/4
LEADVILLE      MOCLDY     9   5  84 E5        29.34S WCI   1
MONARCH PASS     N/A     12  10  92 SW16G23   29.43S WCI  -4
SALIDA         CLOUDY    20  11  68 NW12      29.45F WCI   8
SUNLIGHT       SNOW      16  14  93 MISG      29.35S VSB 1/4
WILKERSON PASS FAIR      12   9  85 SW14G21   29.36R WCI  -3
$$

COZ069>075-211600-
...SAN LUIS VALLEY/SANGRE DE CRISTO MOUNTAINS...

CITY           SKY/WX    TMP DP  RH WIND       PRES   REMARKS
ALAMOSA        CLOUDY    19  15  84 NW7       29.38F WCI  10
LA VETA PASS   CLOUDY    21  19  93 N6        29.37S WCI  14
SAGUACHE       CLOUDY    19  16  86 NW10      29.40S WCI   8
$$

COZ035-036-038>040-211600-
...NORTHERN COLORADO FRONT RANGE...

CITY           SKY/WX    TMP DP  RH WIND       PRES   REMARKS
DENVER INTL AP FAIR      22  16  78 S7        29.36S WCI  13
DMNS CITY PARK   N/A     24  22  92 E7        29.36S WCI  16
AURORA         MOCLDY    22  14  69 E6        29.35S WCI  15
FRONT RANGE AP MOCLDY    25  18  74 SE5       29.36F WCI  19
ERIE MUNI ARPT FAIR      21  19  93 CALM      29.37S
BOULDER MUN AP FAIR      27  21  80 S3        29.36R
CENTENNIAL     MOCLDY    22  15  75 CALM      29.34F
BROOMFIELD     MOCLDY    28  23  80 NW5       29.35S WCI  23
FORT COLLINS   FAIR      21  18  86 N7        29.37S WCI  13
LONGMONT       FAIR      24  20  85 SW3       29.39R
$$

COZ041-046-047-076>085-087-088-211600-
...PIKES PEAK/PALMER DIVIDE AND SOUTHERN FOOTHILLS...

CITY           SKY/WX    TMP DP  RH WIND       PRES   REMARKS
COLO. SPRINGS  MOCLDY    23  19  85 N6        29.36S WCI  16
A. F. ACADEMY  FAIR      19  15  84 CALM      29.35S
SCHRIEVER AFB  NOT AVBL
ELLICOTT       FAIR     N/A N/A N/A E7        29.33F
FALCON         FAIR      23  22  96 N6        29.36R WCI  16
FORT CARSON    NOT AVBL
LIMON          FOG       21  21 100 NW3       29.38S VSB 1/4
MONUMENT HILL  FAIR      23  19  86 S8        29.35S WCI  14
TRINIDAD       FAIR      22  15  75 NW8       29.36R WCI  12
$$

COZ042>045-048>051-090-091-211600-
...NORTHEAST COLORADO...

CITY           SKY/WX    TMP DP  RH WIND       PRES   REMARKS
GREELEY ARPT   FAIR      20  18  92 CALM      29.39S
AKRON          FAIR      30  23  75 S10       29.39R WCI  21
BURLINGTON     FAIR      27  23  85 S3        29.41R
WRAY           FAIR      27  21  80 W3        29.43S
STERLING       FAIR      21  19  93 N3        29.41R
HOLYOKE        FAIR      27  21  80 W6        29.42S WCI  20
FORT MORGAN    FAIR      25  23  93 E5        29.40S WCI  19
$$

COZ086-089-092>099-211600-
...SOUTHEAST COLORADO...

CITY           SKY/WX    TMP DP  RH WIND       PRES   REMARKS
PUEBLO         FOG       29  27  92 SW6       29.39R VSB 1/4 WCI  23
LA JUNTA       FOG       25  23  92 CALM      29.38F VSB 1/4
LAMAR          FAIR      21  18  88 CALM      29.39F
SPRINGFIELD      N/A     27  25  92 CALM      29.37S
$$




USA.gov is the U.S. government's official web portal to all federal, state and local government web resources and services.